Location: Newark
(49.8348°N, 24.0280°E)
Time: 06:12:48
(UTC+00:00)

Transit 2A Rocket - Visible Passes

Search period start: 27 January 2020 00:00
Search period end: 06 February 2020 00:00
Orbit: 593 x 910 km, 66.7° (Epoch: 26 January)

Date Brightness Start Highest point End Pass type
(mag) Time Alt. Az. Time Alt. Az. Time Alt. Az.
27 Jan 6.2 02:51:38 30° E 02:51:38 30° E 02:54:59 10° NE visible
27 Jan 5.0 04:31:34 24° W 04:33:34 38° NW 04:37:43 10° NNE visible
28 Jan 7.4 02:10:46 14° ENE 02:10:46 14° ENE 02:11:50 10° ENE visible
28 Jan 4.4 03:50:42 61° WNW 03:50:53 62° NW 03:55:16 10° NNE visible
29 Jan 5.5 03:09:42 43° NE 03:09:42 43° NE 03:12:44 10° NE visible
29 Jan 5.9 04:49:37 17° WNW 04:51:26 21° NNW 04:54:53 10° NNE visible
30 Jan 6.9 02:28:35 20° NE 02:28:35 20° NE 02:30:05 10° NE visible
30 Jan 5.4 04:08:30 30° NW 04:08:35 30° NW 04:12:32 10° NNE visible
31 Jan 5.7 03:27:17 33° N 03:27:17 33° N 03:30:08 10° NNE visible
31 Jan 6.5 05:07:18 10° NW 05:09:34 14° NNW 05:11:55 10° N visible
01 Feb 6.6 02:46:01 22° NNE 02:46:01 22° NNE 02:47:39 10° NE visible
01 Feb 6.2 04:25:55 17° NW 04:26:34 18° NNW 04:29:38 10° NNE visible
02 Feb 7.5 02:04:41 12° NE 02:04:41 12° NE 02:05:04 10° NE visible
02 Feb 6.1 03:44:36 22° NNW 03:44:36 22° NNW 03:47:19 10° NNE visible
03 Feb 6.5 03:03:14 20° N 03:03:14 20° N 03:04:57 10° NNE visible
03 Feb 6.7 04:43:08 10° NW 04:44:49 12° NNW 04:46:38 10° N visible
04 Feb 7.2 02:21:49 14° NNE 02:21:49 14° NNE 02:22:31 10° NNE visible
04 Feb 6.5 04:01:43 15° NNW 04:01:45 15° NNW 04:04:23 10° NNE visible
05 Feb 6.6 03:20:17 17° N 03:20:17 17° N 03:22:05 10° NNE visible
